Wind_Speed
16 15 12 11 12 14 15 17 19 18 17 19 19 18 19 19 19 18 17 17 16 15 15 15 14 15 15 15 15 15 15 14 13 14 14 14 14 14 13 13 13 12 12
20 17 15 12 12 13 15 17 19 19 19 18 17 18 18 18 18 17 15 15 15 14 14 14 13 14 14 14 14 13 14 13 13 13 15 13 12 12 11 11 11 13 11
21 19 16 13 13 14 16 16 18 19 18 17 17 17 17 16 15 14 13 13 13 13 12 11 12 14 14 13 13 14 14 12 11 12 13 14 11 11 11 11 10 10 9
22 20 18 15 13 15 16 17 18 18 18 17 16 15 15 15 14 12 12 11 11 11 11 10 13 13 13 12 11 9 8 8 9 9 10 11 9 9 10 10 10 10 9
22 21 20 16 15 14 15 16 16 18 17 16 15 14 15 13 12 11 11 10 10 9 8 10 12 13 13 12 9 7 5 6 6 6 8 9 10 9 9 9 9 8 8
23 21 18 15 15 15 14 15 16 18 16 15 14 13 13 12 11 10 9 9 9 9 8 10 12 12 12 9 5 4 4 7 10 6 7 9 8 9 7 7 7 7 8
22 20 17 16 16 16 15 15 16 17 16 14 12 12 12 11 10 10 9 8 9 9 9 13 13 12 10 7 4 4 6 8 8 5 7 8 9 8 7 7 7 6 6
22 20 19 19 18 18 15 16 15 16 14 13 11 11 11 10 9 9 9 10 9 10 13 16 14 11 8 6 5 5 7 5 5 6 8 8 7 6 8 9 6 5 5
19 20 22 21 19 18 16 16 15 13 12 12 11 11 10 9 8 8 9 10 12 13 15 15 13 10 7 5 4 5 4 2 6 7 8 8 9 8 7 6 5 5 5
21 23 25 24 22 20 17 16 15 13 12 11 11 12 9 7 7 8 8 10 12 13 13 11 9 6 4 5 3 5 3 2 6 7 7 8 8 7 7 7 7 6 5
21 21 24 25 22 19 17 15 14 12 11 10 10 10 8 8 6 6 5 6 7 7 6 6 4 4 3 2 2 3 4 4 6 7 7 8 8 7 7 6 6 5 5
22 23 24 25 23 19 17 15 13 12 12 11 11 10 8 6 4 2 1 1 2 2 2 4 4 5 5 6 6 6 5 5 6 6 7 7 8 7 6 6 6 5 4
25 23 22 25 24 20 17 15 14 14 12 10 9 8 7 5 3 1 2 7 8 8 4 1 6 9 8 8 9 11 9 8 7 7 6 6 6 6 6 5 5 5 4
23 23 23 23 24 20 16 16 16 14 11 8 6 5 6 4 1 3 6 9 11 5 6 5 5 1 7 12 13 12 12 10 9 8 6 5 5 5 4 4 4 4 4
26 25 24 23 25 22 16 16 15 12 12 10 6 5 5 2 3 6 5 5 6 6 4 4 6 5 4 5 11 17 17 15 11 10 8 7 5 5 4 4 5 5 5
26 28 26 24 25 23 17 16 14 12 12 10 8 7 5 4 4 5 3 4 5 7 5 7 10 12 10 8 8 13 16 17 16 15 12 10 9 8 7 6 6 7 7
27 29 28 28 27 24 19 17 15 13 14 13 11 9 8 8 7 6 7 6 6 7 6 6 9 7 4 3 6 11 13 17 18 18 16 15 13 13 12 10 9 9 11
28 30 29 28 27 24 23 20 17 17 16 16 13 13 11 10 10 9 11 9 8 6 6 9 10 6 3 1 4 10 12 16 21 21 20 18 17 17 17 15 13 14 13
32 32 32 31 30 27 23 21 17 18 20 17 16 16 16 12 13 14 13 10 10 8 7 10 9 7 6 6 8 6 10 15 21 21 22 22 20 18 17 17 17 18 18
35 35 32 33 30 27 22 20 17 15 19 20 20 18 16 15 16 17 16 12 12 11 10 11 10 11 10 11 12 12 13 13 13 19 22 22 20 20 20 20 19 20 21
32 34 34 33 29 27 26 23 18 17 16 20 22 22 19 17 17 19 19 16 13 12 13 12 12 13 14 12 13 12 12 9 10 12 12 19 20 19 20 18 19 18 18
35 36 35 35 32 30 27 26 25 22 16 16 18 22 21 18 15 18 21 18 16 14 13 14 14 13 13 11 6 5 4 5 4 3 4 4 7 1 6 6 6 11 13
29 36 38 37 34 33 30 27 22 20 17 16 18 19 22 21 20 20 21 21 19 17 17 16 17 16 15 14 8 3 2 2 6 1 3 9 6 3 6 8 8 13 16
33 36 38 38 37 34 31 28 26 26 26 23 20 19 20 21 21 23 23 24 25 24 22 19 17 17 15 15 11 4 6 5 1 4 3 5 12 8 10 11 12 17 16
22 34 40 39 37 36 33 30 27 25 27 27 26 22 21 23 24 24 28 27 25 28 28 24 20 20 17 19 17 12 6 4 5 2 4 6 13 11 10 12 13 18 15
17 19 22 33 36 35 34 32 30 28 27 27 29 28 26 24 25 26 31 34 31 28 30 29 26 23 21 19 17 16 12 6 4 4 2 4 9 14 15 14 16 15 13
Wind_Direction
173 151 131 124 111 105 106 106 107 110 108 107 105 104 102 102 101 100 97 98 96 97 96 94 90 95 96 100 102 102 100 99 102 103 100 99 96 92 94 94 98 99 100
162 153 136 134 123 111 110 110 113 113 111 107 107 105 103 102 101 99 99 101 100 99 101 102 99 96 99 100 100 103 100 96 99 104 101 101 103 101 106 106 109 110 106
162 153 144 141 131 119 113 114 113 114 114 112 110 108 106 103 100 100 101 100 100 99 99 103 107 112 104 100 102 103 103 97 100 103 106 110 109 107 110 110 114 112 117
161 154 148 145 134 125 121 121 120 118 118 118 116 115 106 103 101 99 99 98 103 107 104 101 111 112 112 109 105 111 109 106 101 105 115 116 118 115 118 118 118 120 121
161 156 152 149 139 133 127 128 127 127 123 120 119 115 111 109 107 102 105 105 102 101 112 115 118 116 113 107 104 107 115 147 154 116 126 131 128 129 124 127 122 124 131
160 159 157 151 144 138 133 132 131 128 124 118 119 117 114 111 108 103 102 106 103 103 105 119 127 121 113 99 91 134 126 142 161 142 129 138 131 128 132 151 132 133 136
161 162 159 153 149 145 139 138 134 132 126 120 119 121 114 108 107 102 98 106 103 99 107 122 131 125 111 102 100 144 175 166 174 172 157 154 148 151 147 150 150 147 149
162 163 158 160 156 149 145 142 137 133 132 129 128 126 116 114 109 101 96 96 101 106 115 124 133 132 121 98 114 138 174 185 187 158 156 152 150 161 157 158 171 163 156
164 164 161 160 158 150 151 148 140 135 138 136 135 131 125 121 110 100 94 90 90 103 119 132 140 138 126 110 119 168 205 205 181 166 159 154 155 157 154 153 156 152 151
162 164 163 162 158 155 155 151 146 146 145 143 142 138 137 127 116 100 97 94 94 101 118 133 139 142 127 123 122 189 219 181 175 181 181 180 179 176 171 167 164 158 145
160 161 160 163 162 157 155 154 153 148 148 148 150 145 150 140 136 119 95 82 89 99 115 126 136 145 152 170 214 192 225 197 177 182 172 164 156 154 159 160 160 164 175
162 162 164 168 166 164 161 158 155 150 148 143 145 147 149 149 154 101 63 69 15 346 271 235 208 213 229 245 239 238 234 212 194 187 173 158 150 148 149 150 148 147 161
163 162 170 171 171 167 166 159 156 155 151 151 149 155 162 170 184 287 336 347 341 342 2 130 221 233 232 234 242 244 246 217 210 204 185 170 162 160 160 162 162 161 168
171 171 172 176 177 173 166 161 158 161 161 172 172 170 179 179 242 315 331 328 353 34 60 55 48 47 239 240 239 241 237 231 221 218 204 193 183 182 187 190 189 193 205
177 181 180 181 185 183 177 173 175 176 172 171 180 189 188 183 302 310 322 348 28 30 15 22 9 6 337 286 251 242 241 239 232 232 227 223 216 212 217 223 223 222 232
183 182 182 184 189 190 189 184 187 191 184 186 182 183 213 257 283 297 286 314 344 349 1 360 345 324 307 291 262 234 241 240 247 244 244 242 244 246 245 249 254 251 251
188 183 182 181 185 195 194 192 195 199 202 204 199 204 211 249 254 266 274 278 310 326 346 334 333 338 290 255 240 229 243 242 248 251 251 252 254 257 256 258 262 263 264
189 187 183 185 189 194 198 201 216 216 210 207 206 211 220 235 240 255 266 275 305 308 321 330 334 359 34 293 290 257 253 258 256 255 256 257 261 266 265 265 268 274 272
195 191 191 192 197 200 208 217 227 222 210 213 213 219 227 233 239 248 250 274 296 303 307 313 321 331 322 318 314 293 276 267 255 254 258 263 265 269 275 276 275 275 276
197 197 198 198 202 206 209 208 212 214 222 225 223 224 226 238 244 245 245 265 288 297 303 306 303 309 319 328 318 308 305 291 263 253 262 266 271 273 275 279 285 285 283
192 197 199 201 205 200 197 198 201 207 218 227 231 231 234 248 248 242 245 254 277 288 293 301 305 312 317 329 328 316 311 300 277 254 271 262 265 277 281 281 296 299 298
188 198 200 203 203 203 204 206 212 215 224 231 227 230 238 252 252 246 243 247 262 268 285 284 291 309 317 321 333 333 340 325 11 344 27 312 264 339 332 312 343 360 336
187 197 202 206 209 210 213 215 218 227 225 222 226 234 243 250 254 254 247 245 252 259 270 276 280 288 299 296 307 300 340 277 329 291 51 43 59 47 359 349 348 351 338
195 200 205 207 211 215 216 219 220 221 224 232 235 241 246 250 257 251 252 245 247 255 262 269 274 279 282 280 295 248 292 279 276 327 343 359 355 344 335 341 343 342 335
198 201 207 212 216 218 216 221 225 231 234 235 240 248 255 259 257 259 247 248 251 251 255 257 262 269 271 271 274 279 291 299 264 223 290 313 327 341 343 339 335 342 333
208 208 212 217 221 222 221 223 227 231 237 244 248 251 251 255 259 263 255 249 251 255 253 253 257 262 269 265 270 269 263 263 263 256 262 290 289 311 321 333 325 340 341
Height
813 814 814 816 816 815 815 814 814 815 816 816 817 818 818 818 819 819 821 821 821 822 822 823 823 824 826 827 827 827 828 828 828 828 828 828 828 828 829 830 831 831 832
812 814 815 817 818 818 818 817 816 817 818 819 819 820 821 821 821 822 823 824 824 825 825 826 827 828 829 830 831 831 830 831 831 831 831 831 831 831 832 832 833 834 835
813 816 818 819 819 820 820 820 820 820 821 821 822 823 823 824 824 825 826 827 827 828 828 829 829 830 832 833 833 833 833 834 834 833 833 833 833 834 834 835 835 836 837
815 818 820 821 822 822 823 824 823 823 824 825 825 826 826 827 828 829 829 830 830 830 831 832 832 833 834 834 835 836 836 836 836 835 835 835 835 836 836 837 838 838 839
817 820 821 823 824 826 827 827 827 826 827 827 828 828 828 829 830 832 832 833 832 833 833 834 835 835 836 836 837 837 837 837 837 837 836 836 837 838 838 839 839 840 840
819 821 824 826 827 830 831 831 829 829 830 830 830 831 831 832 833 835 835 835 835 835 836 836 838 838 838 838 838 838 837 837 837 838 838 838 838 839 840 840 841 842 842
820 823 827 829 830 832 833 833 833 833 833 833 834 834 834 835 837 837 838 838 838 838 838 838 840 840 840 840 839 839 838 838 839 839 838 839 840 841 841 841 842 843 843
821 824 828 830 831 833 834 835 836 836 836 836 836 837 837 838 839 839 841 841 840 840 839 840 842 842 842 842 841 841 840 840 840 840 840 840 841 841 841 842 843 843 844
823 825 829 831 833 835 836 837 838 839 839 839 839 839 840 841 842 842 843 843 843 843 842 843 844 844 844 844 843 843 843 842 841 841 841 842 843 843 843 843 843 844 845
825 826 829 832 834 836 838 838 839 840 841 841 841 842 843 844 845 845 845 846 847 847 846 846 846 847 846 846 845 845 845 844 843 843 843 843 844 844 844 844 844 845 846
827 828 830 833 835 837 840 840 841 841 842 842 843 844 845 846 846 848 848 849 849 850 850 850 849 849 848 848 848 848 847 846 845 845 844 844 844 844 845 845 845 846 846
828 830 832 834 836 838 840 841 842 843 844 844 845 846 847 848 849 851 849 850 851 851 851 851 851 851 851 850 850 849 848 847 847 846 846 846 846 846 846 846 846 847 847
829 831 833 835 837 839 841 842 843 845 846 846 847 848 849 851 852 852 852 851 851 850 849 850 851 851 851 850 850 850 849 848 848 847 847 847 847 847 847 847 847 848 847
830 832 834 836 838 840 842 843 845 846 848 849 849 850 851 852 853 854 853 853 851 851 851 851 851 851 851 850 849 849 849 849 848 848 848 848 848 848 847 847 848 848 848
829 833 836 838 839 841 843 845 846 847 849 850 851 852 852 854 854 854 853 852 853 853 853 852 852 852 851 850 849 848 848 849 849 849 849 849 848 848 847 847 847 847 847
829 831 835 838 841 843 844 845 847 849 850 851 853 853 854 855 855 855 855 854 854 854 854 853 852 850 849 848 846 847 847 849 850 849 848 848 848 848 847 846 846 846 845
827 831 833 836 840 842 844 846 848 849 851 852 853 854 855 856 856 857 856 856 856 855 854 853 851 849 848 848 847 847 847 847 847 847 847 847 847 846 845 845 844 844 843
826 829 832 836 838 841 843 845 847 849 850 852 854 855 856 856 857 857 857 857 856 855 854 853 851 850 848 848 847 847 846 846 845 845 845 845 845 844 844 844 843 842 841
824 827 830 833 836 839 843 846 847 848 850 851 853 854 855 856 857 857 857 857 857 856 855 854 852 851 849 847 846 845 845 843 842 843 843 843 843 842 842 842 841 840 839
822 826 829 832 834 837 841 845 846 848 850 851 852 853 854 855 855 856 856 856 856 856 855 854 852 851 849 847 845 843 842 841 840 841 840 840 840 840 840 839 839 838 837
820 824 827 831 834 838 840 842 844 846 848 849 851 852 853 854 854 854 855 855 856 856 855 854 852 851 850 848 845 843 840 839 838 838 838 837 837 837 837 838 837 836 834
816 822 825 828 832 835 837 839 841 843 845 847 848 850 851 852 853 853 854 854 855 855 855 854 854 853 852 851 849 847 845 840 838 837 835 835 835 836 836 836 836 834 831
815 818 822 826 829 832 835 837 840 842 843 844 845 847 848 849 851 851 852 853 854 854 854 854 854 854 852 852 851 850 850 849 841 837 836 836 836 836 835 835 834 832 829
812 816 821 824 826 830 834 835 836 835 838 840 842 844 846 847 847 848 849 850 852 852 852 852 853 852 852 851 850 849 848 847 846 844 837 836 836 835 834 833 831 829 826
815 815 818 822 824 827 830 833 835 835 836 837 839 840 841 843 844 845 846 847 847 848 849 850 850 849 850 850 849 849 847 846 845 845 843 837 835 835 833 832 830 827 825
815 819 821 822 823 825 827 830 831 832 833 835 836 837 837 838 839 840 841 842 843 843 844 845 846 846 846 846 846 846 845 845 843 843 842 838 836 832 831 830 828 826 823